Current weather by "City, St" or "zip code"  
 

Current Conditions: Mondell Field, WY

Fair


28.0 F

Last Updated on Feb 25 2024, 3:15 am MST
Humidity: 64%
Wind Speed: NE 3.5 mph
Barometer 29.76 in
Dewpoint: 17.6 F
Visibility: 10.00 mi
Precip: --
Heat Index: NA
Wind Chill: NA
Current conditions at:

Mondell Field, WY (KECS)

Lat: 43.8854 Lon: 104.3179

Local Radar Image active severe weather and emergency alerts image image weather storm and storm spotter reports image weather observation monitoring service image
Local
Radar
Active
Alerts
Storm Reports Obs
Monitoring

Sign-up For Email & Text Message Weather Alert Notification Services



Advertise Here

Observation History for Mondell Field, WY


Time Wind
(mph)
Vis
(mi)
Weather Precip (in) Temperature (F) Relative
Humidity
Wind
Chill
(F)
Heat
Index
(F)
Pressure
Air Dwpt altimeter
(in)
sea level
(mb)
Rmks
3:15 am MST NE 3.5 10.00 Fair -- 28.0 17.6 64% NA NA 29.76 M
2:55 am MST E 4.6 10.00 Fair -- 27.0 17.6 69% 22 NA 29.76 M
1:55 am MST NE 5.8 10.00 Fair -- 28.0 17.6 64% 22 NA 29.77 M
1:35 am MST N 0.0 10.00 Fair -- 28.0 17.6 64% NA NA 29.77 M
12:55 am MST N 5.8 10.00 Fair -- 30.0 17.6 59% 24 NA 29.78 M
11:55 pm MST N 0.0 10.00 Fair -- 32.0 15.8 51% NA NA 29.78 M
10:35 pm MST N 0.0 10.00 Fair -- 32.0 17.6 55% NA NA 29.79 M
9:35 pm MST NE 5.8 10.00 Fair -- 34.0 15.8 48% 29 NA 29.80 M
7:55 pm MST N 8.1 10.00 Fair -- 37.0 14.0 38% 31 NA 29.78 M
6:55 pm MST W 6.9 10.00 Mostly Cloudy -- 37.0 15.8 41% 32 NA 29.78 M
6:35 pm MST N 3.5 10.00 Overcast -- 43.0 14.0 31% NA NA 29.76 M
6:15 pm MST NW 4.6 10.00 Mostly Cloudy -- 43.0 14.0 31% 40 NA 29.76 M
4:35 pm MST W 13.8 G 20.7 10.00 Partly Cloudy -- 54.0 8.6 16% 50 NA 29.76 M
3:35 pm MST W 15.0 G 24.2 10.00 Fair -- 54.0 8.6 16% 50 NA 29.78 M
2:35 pm MST W 11.5 G 25.3 10.00 Mostly Cloudy -- 54.0 8.6 16% 51 NA 29.78 M
1:15 pm MST NW 19.6 G 26.5 10.00 Fair -- 52.0 10.4 19% 46 NA 29.81 M
11:55 am MST W 3.5 10.00 Fair -- 48.0 14.0 25% NA NA 29.85 M
10:55 am MST N 4.6 10.00 Fair -- 43.0 15.8 34% 40 NA 29.88 M
9:55 am MST N 0.0 10.00 Fair -- 39.0 17.6 42% NA NA 29.91 M
9:15 am MST 10.00 Fair -- 37.0 17.6 45% NA NA 29.90 M
8:15 am MST N 0.0 10.00 Fair -- 34.0 21.2 60% NA NA 29.91 M
6:55 am MST N 0.0 10.00 Mostly Cloudy -- 25.0 17.6 74% NA NA 29.91 M

Regional Weather Observation


Hulett Municipal Airport, WY (KW43)

Mostly Cloudy
30.0 F

Spearfish / Clyde Ice, SD (KSPF)

Overcast
30.0 F

Gillette, Gillette-Campbell County Airport, WY (KGCC)

Fair
38.0 F

Custer, Custer County Airport, SD (KCUT)

Fair
31.0 F

Ellsworth Air Force Base, SD (KRCA)

Fair
30.0 F

Rapid City, Rapid City Regional Airport, SD (KRAP)

Fair
25.0 F

Advertise Here


Advertise Here